Погода в Сыктывкаре

Погода в Сыктывкаре : погода сейчас, прогноз погоды и архив. Всё, что Вы хотите узнать о погоде в Сыктывкаре!

Поиск расширенной информации на нашем сайте:

Другие новости

Новости СМИ2

Главная страница сайта

Новости сайта

03.07.2017

Напоминаем, что на нашем специализированном сайте Метеоцентр.Азия вы можете получить высокодетализированные автоматические прогнозы погоды по пунктам России, СНГ и мира в авиационном формате (включающие направление и скорость ветра, видимость, явления погоды, количество и форму облачности, нижнюю и верхнюю границу облачности).


Погода в Сыктывкаре - сегодня

Время (UTC), дата Ветер
(°,м/с) 
Видим.   Явления Облачность Т
(°С)
Тd
(°С)
f(%) Тe
(°С)
Pmin
(гПа)
dP
(гПа)
Po
(мм)
O2
(г/м3)
Тmin Tmax R s Состояние
почвы
03 18.06.18 350 (С) 20000 м    5/0 верхняя 
[Ci sp]
+17.5 +4.9 43 +19  1014.1  0.1  750  283  +6.2        влажная 
06 18.06.18 360 (С) 20000 м    ясно 
+22.9 +4.2 30 +23  1012.9  -0.9  750  278           
09 18.06.18 020 (С) 20000 м    4/4 600 м 
[Sc]
+25.4 +7.3 32 +25  1011.6  -1.2  749  275           
12 18.06.18 340 (С) 20000 м    8/8 720 м 
[Sc]
+25.6 +7.8 32 +26  1010.6  -1  748  274           
18 18.06.18 тихо ()   20000 м    ясно 
+17.1 +9.9 63 +18  1009.9  -0.3  747  282           
21 18.06.18 тихо ()   10 км    ясно 
+10.8 +9.8 94 +12  1010.3  0.2  747  288           
00 19.06.18 тихо ()   20000 м    ясно 
+8.6 +8.2 97 +9  1010.5  747  290           
03 19.06.18 тихо ()   20000 м    8/0 верхняя 
[Ci fib]
+18.9 +10.2 57 +20  1009.7  -0.3  747  280  +8.5        влажная 
06 19.06.18 130 (ЮВ) 20000 м    8/0 средняя, верхняя 
[Ac trans|Ci fib]
+23 +9.7 43 +24  1008.4  -1.1  746  276           
09 19.06.18 090 (В) 20000 м    8/5 600 м верхняя 
[Cu hum|Ci fib]
+24.8 +8 34 +25  1006.4  -1.9  745  274           
12 19.06.18 030 (СВ) 20000 м    8/5 600 м верхняя 
[Cu hum|Cc]
+24.7 +7.1 32 +25  1004.2  -2.1  743  273           
18 19.06.18 тихо ()   20000 м    10/0 средняя, верхняя 
[Ac As|Ci fib]
+18.1 +14.9 82 +27  1001  -1.8  741  277           
21 19.06.18 тихо ()   10 км    10/4 300 м кучево-дожд., средняя 
[Cb calv|Ac As]
+16.6 +13.8 84 +24  1000  -1  740  278           
00 20.06.18 тихо ()   20000 м    8/3 300 м кучево-дожд., средняя, верхняя 
[Cb calv|Ac As|Ci fib]
+14.4 +14.1 98 +22  997.9  -2.2  738  280           
03 20.06.18 200 (Ю) 20000 м  {ливн. осадки}  9/3 600 м кучево-дожд., средняя 
[Cb calv|Ac As]
+17.8 +14.1 79 +27  995.1  -2.5  736  276  +14.3    0.0    влажная 
06 20.06.18 200 (Ю) 20000 м  {ливн. осадки}  9/0 средняя, верхняя 
[Ac lent|Cc]
+21 +14.5 66 +29  991.7  -3.3  734  272           
09 20.06.18 200 (Ю) 10 км  слаб. ливневой дождь  10/5 300 м кучево-дожд., средняя 
[Cb cap|Ac As]
+17.5 +15.6 89 +28  989.5  -2.3  732  274           
12 20.06.18 230 (ЮЗ) 20000 м  {ливн. осадки}  10/8 480 м кучево-дожд., средняя 
[Cb cap|Ac As]
+17.3 +13.4 78 +25  987.8  -1.7  731  274           
15 20.06.18 280 (З) 10 км  слаб. ливневой дождь  10/8 300 м кучево-дожд., средняя 
[Cb cap|As op]
+13 +12.5 97 +18  988  -0.1  731  279    +22.2     
03 21.06.18 250 (З) 10 км  слаб. дождь  10/8 270 м средняя 
[Frnb|As op]
+10.4 +10 97 +13  986.5  -0.1  730  281  +10.3      влажная 
18 21.06.18 300 (СЗ) 20000 м  {ливн. осадки}  4/3 600 м кучево-дожд., средняя, верхняя 
[Cb cap|Ac trans|Cc]
+15.2 +14.5 96 +24  996  2.2  737  278           
03 22.06.18 310 (СЗ) 20000 м    9/8 500 м кучево-дожд., средняя, верхняя 
[Cb cap|Ac trans|Cc]
+14.9 +12.8 87 +20  1001.3  1.6  741  280  +14.3        влажная 
06 22.06.18 310 (СЗ) 20000 м    10/4 600 м средняя, верхняя 
[Sc|Ac As|Cs]
+20.3 +14.2 68 +28  1002.6  1.5  742  275           
09 22.06.18 300 (СЗ) 20000 м    10/5 1000 м верхняя 
[Cu Sc|Cs]
+21.8 +14.3 62 +30  1004.7  2.1  743  275           
12 22.06.18 300 (СЗ) 20000 м    10/4 600 м кучево-дожд., средняя, верхняя 
[Cb cap|Ac As|Cs]
+20.3 +13.9 67 +27  1006  1.3  744  276           
Время (UTC), дата Ветер
(°,м/с) 
Видим.   Явления Облачность Т
(°С)
Тd
(°С)
f(%) Тe
(°С)
Pmin
(гПа)
dP
(гПа)
Po
(мм)
O2
(г/м3)
Тmin Tmax R s Состояние
почвы

Для получения пояснительной информации подведите курсор к названию столбца.

ПОГОДА в Сыктывкаре - архив

Всё, что Вы хотите узнать о погоде в Сыктывкаре - удобно и подробно!

Выберите нужную дату (начиная с 1 января 2015* года) и нажмите кнопку "Найти".
Будут отображены архивные сводки погоды по пункту Сыктывкар, начиная с указанной даты.


Отображать данные в формате CSV (для использования в таблицах Excel)


Внимание! Наш архив погоды предназначен исключительно для личного некоммерческого использования в познавательных целях. Если Вам необходимы официальные справки о состоянии погоды (для производственных, юридических, коммерческих и т.п. целей), обращайтесь в органы Росгидромета.

*Примечание: данная дата относится к архиву по метеостанциям СССР (Россия, СНГ, Балтия).
Архив по метеостанциям Зарубежной Европы и Азии (кроме Китая) хранится 10 дней, по другим регионам земного шара (Китай, Африка, Америка, Австралия, Океания) - 1 день.

Сыктывкар - район местоположения метеостанции


Название, широта, долгота, высота метеостанции:
Сыктывкар (город) 61.7°ш. 50.8°д. 104 м над ур. моря [Российская Федерация]

Дополнительная информация

В oтличие oт бoльшинства пoгoдных сайтoв мы публикуем пoдрoбную метеoинфoрмацию в детальнoм прoфессиoнальнoм фoрмате.

Характеристики температуры и влажнoсти вoздуха измеряются на высoте 2 м в тени вдали oт зданий и деревьев.
Скoрoсть ветра измеряется на высoте 10 м (на урoвне рoста челoвека скoрoсть ветра ниже в 1.5-2 раза). Если метеoстанция нахoдится в гoрoде или в лесу, тo скoрoсть ветра занижена на 2-4 м/с пo сравнению с oткрытым местoм. Скoрoсть ветра над акватoриями крупных рек и oзёр, а также на вершинах хoлмoв на 2-5 м/с выше, чем в oбычных услoвиях.
Атмoсфернoе давление в разных тoчках местнoсти мoжет значительнo oтличаться oт давления на метеoстанции, в зависимoсти oт услoвий рельефа (при пoдъёме на 10 м давление пoнижается примернo на 1 мм рт.ст.).